[[{"header":{"parameterUnit":"m.s-1","parameterCategory":1,"la1":30.2991,"la2":30.254,"lo1":-89.0895,"lo2":-89.0444,"dy":0.0017,"dx":0.0017,"nx":28,"ny":28,"refTime":"2024-08-11T15:00:00:Z","depth":0,"parameterNumber":2,"parameterNumberName":"U-component_of_WINDS"},"data":[0,0,0,0,0,0,0,0,0,0,0,0,0,0,0,0,0,0,0,0,0,0,0,0,0,0,0,0,0,0,0,0,0,0,0,0,0,0,0,0,0,0,0,0,0,0,0,0,0,0,0,0,0,0,0,0,0,0,1.5978,1.5978,0,1.5956,1.5956,1.5955,1.5855,1.5853,1.585,1.5848,1.5827,1.5828,1.583,0,0,0,0,0,0,0,0,0,0,0,0,0,1.5936,1.5937,1.5978,1.5978,1.5977,1.5956,1.5956,1.5955,1.5856,1.5853,1.585,1.5847,1.5826,1.5828,1.583,0,0,0,0,0,0,0,0,0,0,0,0,0,1.5938,1.5937,1.5978,1.5925,1.592,1.5956,1.5956,1.5955,1.5856,1.5853,1.5849,1.5846,1.5825,1.5828,1.583,1.5916,0,0,1.5838,1.5839,0,0,0,0,0,0,0,0,1.5938,1.594,1.5933,1.5929,1.5923,1.5905,1.5932,1.5942,1.5857,1.5881,1.5848,1.5844,1.5856,1.5855,1.5859,1.5915,1.5914,1.5838,1.5839,1.584,1.5841,0,0,0,0,0,0,0,1.5938,1.594,1.5969,1.5933,1.5927,1.5903,1.5899,1.5934,1.5888,1.5878,1.5871,1.587,1.5852,1.5857,1.5858,1.5913,1.5838,1.584,1.5841,1.5842,1.604,1.6043,0,0,0,0,0,0,1.5945,1.594,1.597,1.5968,1.5922,1.5907,1.5903,1.5914,1.5887,1.588,1.5873,1.5865,1.5854,1.5855,1.5856,1.5955,1.584,1.5843,1.5844,1.6036,1.604,1.6044,0,0,0,0,0,0,1.5944,1.5949,1.5971,1.5953,1.5953,1.5911,1.5925,1.5916,1.592,1.5883,1.5875,1.5886,1.5852,1.5853,1.5902,1.5953,1.5844,1.5846,1.6031,1.6037,1.6042,1.6154,0,0,0,0,0,0,1.5944,1.5949,1.598,1.5954,1.5955,1.6016,1.5928,1.5918,1.5924,1.5914,1.5893,1.5886,1.5849,1.5899,1.5904,1.5955,1.5848,1.6027,1.6034,1.6041,1.6146,1.6163,1.6178,0,0,0,0,0,1.5942,1.6013,1.5983,1.5987,1.5993,1.6019,1.602,1.5975,1.5929,1.5961,1.5937,1.5887,1.5947,1.5905,1.591,1.5962,1.6023,1.6032,1.604,1.6138,1.6159,1.6177,0,0,0,0,0,0,1.6046,1.6008,1.5974,1.6038,1.6033,1.6003,1.6041,1.5999,1.6007,1.5997,1.5942,1.5938,1.5995,1.5983,1.5937,1.6044,1.5977,1.5987,1.605,1.6069,1.6085,1.6087,1.585,0,0,0,0,0,1.6076,1.61,1.6066,1.6125,1.6125,1.6084,1.6093,1.606,1.6052,1.6049,1.6029,1.6024,1.6042,1.6055,1.6069,1.6143,1.6138,1.6182,1.6198,1.6211,1.6221,1.626,1.628,1.6072,1.6072,1.6072,0,0,1.6139,1.6121,1.614,1.6146,1.6138,1.6165,1.6082,1.6114,1.6134,1.6054,1.6099,1.6085,1.6076,1.6138,1.6164,1.613,1.6277,1.6222,1.6233,1.6235,1.6271,1.6291,1.6308,1.6078,1.6077,1.6076,0,0,1.6267,1.6256,1.6304,1.6298,1.6288,1.626,1.6272,1.6249,1.6236,1.628,1.6222,1.6245,1.6276,1.6272,1.6275,1.6404,1.6358,1.641,1.6493,1.6533,1.6549,1.6563,1.661,1.6628,1.6419,1.6419,1.642,0,1.6346,1.6384,1.6335,1.6371,1.6376,1.6306,1.6355,1.6352,1.6346,1.6352,1.6313,1.6352,1.6341,1.6402,1.6434,1.6438,1.645,1.6412,1.6551,1.6565,1.6577,1.6621,1.6639,1.6426,1.6425,1.6424,1.6424,0,1.6482,1.651,1.6551,1.6548,1.6557,1.66,1.6558,1.6574,1.654,1.6517,1.6564,1.6548,1.6559,1.6571,1.6537,1.6628,1.6607,1.656,1.6492,1.6604,1.6645,1.6661,1.6435,1.6433,1.6431,1.6429,0,0,1.6674,1.6644,1.666,1.6659,1.6642,1.6663,1.6703,1.6713,1.6728,1.6727,1.676,1.6789,1.6747,1.6749,1.6715,1.675,1.6854,1.6699,1.6698,1.6729,1.6954,1.699,1.701,1.6824,1.6827,1.683,1.6955,0,1.6797,1.6863,1.6821,1.6895,1.692,1.6854,1.6889,1.6884,1.6864,1.6883,1.6861,1.6883,1.6824,1.6826,1.6857,1.6835,1.6899,1.6825,1.6855,1.6857,1.686,1.7031,1.7068,1.7187,1.6971,1.6973,1.6975,0,1.6949,1.6955,1.7031,1.7011,1.702,1.7052,1.7059,1.7078,1.7071,1.7054,1.7058,1.7016,1.7055,1.6987,1.7041,1.6992,1.7001,1.6993,1.6996,1.6997,1.6923,1.7037,1.7224,1.7242,1.7,1.6998,1.6996,0,1.7082,1.7109,1.7159,1.7159,1.7137,1.7162,1.7153,1.7143,1.7152,1.7158,1.7164,1.7175,1.7181,1.7191,1.7153,1.7107,1.7212,1.7141,1.72,1.7201,1.7224,1.7224,1.7416,1.7231,1.723,1.723,1.723,0,1.7224,1.7273,1.7218,1.7249,1.7303,1.7255,1.7309,1.7294,1.7286,1.7313,1.7257,1.7283,1.7232,1.7253,1.7224,1.7273,1.7276,1.7264,1.7256,1.727,1.7271,1.7275,1.7266,1.7235,1.7234,1.7233,1.7232,0,1.7381,1.7347,1.7396,1.7372,1.7367,1.7408,1.7387,1.7414,1.7391,1.7426,1.7432,1.7395,1.7418,1.7382,1.74,1.738,1.7449,1.7428,1.7452,1.7446,1.7507,1.7502,1.7709,1.7734,1.7532,1.7534,1.7536,0,1.7474,1.7511,1.7491,1.7505,1.75,1.7523,1.7533,1.7487,1.75,1.7495,1.7524,1.7542,1.7554,1.7594,1.7569,1.7583,1.7562,1.7634,1.7564,1.7577,1.7564,1.7563,1.7567,1.7648,1.7651,1.7653,1.7654,0,1.7643,1.7625,1.764,1.7651,1.7664,1.767,1.7672,1.7687,1.7639,1.7656,1.7679,1.7688,1.7708,1.7727,1.7735,1.7727,1.7684,1.7677,1.7691,1.7706,1.7718,1.7713,1.7491,1.7672,1.767,1.7669,1.7668,1.7667,1.7772,1.7802,1.7792,1.7812,1.7809,1.7813,1.7838,1.7818,1.7837,1.7849,1.7821,1.7851,1.7844,1.7851,1.7848,1.7871,1.7839,1.786,1.7865,1.7872,1.7882,1.7715,1.7872,1.7872,1.7871,1.7871,1.787,0,1.7938,1.7929,1.7948,1.7953,1.797,1.7927,1.7928,1.7944,1.7971,1.7968,1.7982,1.8009,1.8027,1.8005,1.802,1.8043,1.8023,1.8048,1.8046,1.8045,1.7908,1.7895,1.8064,1.8064,1.8064,1.8064,1.8064,1.8064,1.8027,1.8076,1.8057,1.8104,1.8095,1.8124,1.8128,1.8131,1.8129,1.8161,1.8177,1.8162,1.8152,1.8166,1.8181,1.8174,1.8183,1.8215,1.8201,1.8074,1.8055,1.8037,1.8024,1.8217,1.8217,1.8336,1.8337,1.8338]},{"header":{"parameterUnit":"m.s-1","parameterCategory":1,"la1":30.2991,"la2":30.254,"lo1":-89.0895,"lo2":-89.0444,"dy":0.0017,"dx":0.0017,"nx":28,"ny":28,"refTime":"2024-08-11T15:00:00:Z","depth":0,"parameterNumber":3,"parameterNumberName":"V-component_of_WINDS"},"data":[0,0,0,0,0,0,0,0,0,0,0,0,0,0,0,0,0,0,0,0,0,0,0,0,0,0,0,0,0,0,0,0,0,0,0,0,0,0,0,0,0,0,0,0,0,0,0,0,0,0,0,0,0,0,0,0,0,0,-2.1105,-2.1105,0,-2.118,-2.1181,-2.1182,-2.1181,-2.118,-2.1179,-2.1178,-2.1254,-2.1257,-2.126,0,0,0,0,0,0,0,0,0,0,0,0,0,-2.0958,-2.0961,-2.1104,-2.1105,-2.1106,-2.118,-2.1181,-2.1182,-2.1181,-2.118,-2.1179,-2.1178,-2.1253,-2.1257,-2.126,0,0,0,0,0,0,0,0,0,0,0,0,0,-2.1026,-2.0962,-2.1104,-2.1115,-2.1117,-2.118,-2.1181,-2.1183,-2.1182,-2.118,-2.1178,-2.1177,-2.1252,-2.1256,-2.1261,-2.1318,0,0,-2.1274,-2.1276,0,0,0,0,0,0,0,0,-2.1023,-2.1032,-2.1112,-2.1114,-2.1116,-2.117,-2.1158,-2.1228,-2.1182,-2.1157,-2.1178,-2.1176,-2.1227,-2.1234,-2.1251,-2.1322,-2.1325,-2.1275,-2.1277,-2.1279,-2.1281,0,0,0,0,0,0,0,-2.1018,-2.1029,-2.1134,-2.1114,-2.1116,-2.1115,-2.1124,-2.1171,-2.1199,-2.1159,-2.1159,-2.1168,-2.1228,-2.1247,-2.1253,-2.1326,-2.1275,-2.1279,-2.1281,-2.1283,-2.1449,-2.1451,0,0,0,0,0,0,-2.1011,-2.1025,-2.1132,-2.1137,-2.1065,-2.1119,-2.1128,-2.1154,-2.1199,-2.1204,-2.1169,-2.1168,-2.124,-2.1248,-2.1256,-2.1326,-2.1279,-2.1284,-2.1286,-2.1447,-2.1449,-2.1451,0,0,0,0,0,0,-2.1008,-2.1021,-2.1129,-2.1081,-2.1095,-2.1123,-2.1152,-2.1156,-2.1175,-2.1207,-2.1212,-2.1183,-2.1239,-2.1249,-2.1303,-2.1329,-2.1286,-2.129,-2.1445,-2.1448,-2.145,-2.1468,0,0,0,0,0,0,-2.1004,-2.102,-2.1042,-2.1081,-2.1097,-2.1175,-2.1154,-2.1159,-2.1183,-2.1182,-2.1221,-2.1226,-2.1239,-2.1296,-2.1307,-2.1334,-2.1293,-2.1443,-2.1446,-2.1449,-2.1465,-2.1471,-2.1476,0,0,0,0,0,-2.0999,-2.1043,-2.1043,-2.1056,-2.1126,-2.1177,-2.1186,-2.12,-2.1185,-2.1208,-2.1228,-2.1225,-2.1324,-2.1302,-2.1314,-2.1343,-2.1441,-2.1445,-2.1449,-2.1463,-2.147,-2.1476,0,0,0,0,0,0,-2.1005,-2.1049,-2.1049,-2.1108,-2.1139,-2.1177,-2.1205,-2.1206,-2.1242,-2.1239,-2.1254,-2.1263,-2.1317,-2.1335,-2.1309,-2.1401,-2.1381,-2.1388,-2.1387,-2.1394,-2.1399,-2.1393,-2.1297,0,0,0,0,0,-2.1014,-2.1052,-2.1088,-2.1137,-2.1152,-2.1176,-2.1199,-2.1207,-2.124,-2.1252,-2.1277,-2.1308,-2.1347,-2.1371,-2.1408,-2.1468,-2.1477,-2.1494,-2.1499,-2.1503,-2.1509,-2.1542,-2.155,-2.1464,-2.1464,-2.1464,0,0,-2.1032,-2.106,-2.1083,-2.1139,-2.1164,-2.1203,-2.1187,-2.1229,-2.1258,-2.1259,-2.1311,-2.133,-2.1366,-2.1423,-2.145,-2.144,-2.1534,-2.1508,-2.1511,-2.1514,-2.1547,-2.1555,-2.1562,-2.1467,-2.1466,-2.1466,0,0,-2.1084,-2.1109,-2.1153,-2.1179,-2.1217,-2.1233,-2.1243,-2.1281,-2.1294,-2.1347,-2.1349,-2.1383,-2.1449,-2.1475,-2.1496,-2.156,-2.1558,-2.1571,-2.1598,-2.1631,-2.1638,-2.1644,-2.1666,-2.1674,-2.1577,-2.1577,-2.1577,0,-2.1101,-2.116,-2.1175,-2.1218,-2.1242,-2.1245,-2.1289,-2.1313,-2.1361,-2.1378,-2.1367,-2.145,-2.1474,-2.1538,-2.1553,-2.1571,-2.1583,-2.1566,-2.1636,-2.1642,-2.1648,-2.167,-2.1678,-2.1578,-2.1578,-2.1578,-2.1578,0,-2.1179,-2.1221,-2.1251,-2.1299,-2.1326,-2.137,-2.139,-2.1417,-2.1423,-2.144,-2.1494,-2.1524,-2.1567,-2.1583,-2.1588,-2.1647,-2.164,-2.1632,-2.1612,-2.1657,-2.1678,-2.1686,-2.158,-2.1579,-2.1579,-2.1579,0,0,-2.1237,-2.1293,-2.1304,-2.1326,-2.1369,-2.1401,-2.1444,-2.1487,-2.151,-2.1543,-2.158,-2.1636,-2.1629,-2.1654,-2.1662,-2.1691,-2.1739,-2.168,-2.1681,-2.169,-2.1806,-2.1812,-2.1821,-2.1739,-2.1741,-2.1742,-2.1803,0,-2.1294,-2.1372,-2.1386,-2.1454,-2.1492,-2.1496,-2.1534,-2.1564,-2.1582,-2.1616,-2.1635,-2.1675,-2.1663,-2.1678,-2.1707,-2.1727,-2.1763,-2.1723,-2.1773,-2.1775,-2.1764,-2.1832,-2.1838,-2.1894,-2.1812,-2.1813,-2.1814,0,-2.1371,-2.1407,-2.1478,-2.1516,-2.1533,-2.1567,-2.1608,-2.1641,-2.1676,-2.1687,-2.1715,-2.1721,-2.1766,-2.1744,-2.1807,-2.1779,-2.1801,-2.1814,-2.1817,-2.1822,-2.1797,-2.1839,-2.1913,-2.1921,-2.1827,-2.1826,-2.1825,0,-2.1406,-2.1472,-2.1523,-2.1542,-2.1588,-2.1612,-2.1632,-2.1665,-2.1691,-2.1726,-2.1743,-2.1783,-2.1805,-2.1836,-2.1853,-2.1836,-2.1914,-2.1894,-2.1924,-2.1924,-2.194,-2.1939,-2.2019,-2.1955,-2.1954,-2.1954,-2.1954,0,-2.1467,-2.1511,-2.154,-2.1572,-2.162,-2.1637,-2.1685,-2.1705,-2.1735,-2.177,-2.1776,-2.1809,-2.1829,-2.1865,-2.1879,-2.1929,-2.1938,-2.1948,-2.1951,-2.1948,-2.1946,-2.1962,-2.1958,-2.1957,-2.1956,-2.1956,-2.1955,0,-2.1514,-2.1536,-2.1592,-2.1632,-2.1643,-2.1677,-2.1711,-2.1741,-2.1759,-2.1804,-2.1816,-2.1843,-2.1886,-2.1906,-2.1959,-2.1968,-2.2025,-2.2025,-2.2013,-2.2014,-2.2043,-2.204,-2.2135,-2.2149,-2.2076,-2.2076,-2.2077,0,-2.1552,-2.1586,-2.1629,-2.1654,-2.1675,-2.1714,-2.174,-2.1758,-2.1785,-2.1827,-2.1853,-2.1896,-2.1932,-2.2,-2.2025,-2.2066,-2.2067,-2.2097,-2.2073,-2.2069,-2.2067,-2.2065,-2.2069,-2.2102,-2.2102,-2.2103,-2.2103,0,-2.1617,-2.1626,-2.1664,-2.1705,-2.1736,-2.177,-2.1802,-2.1822,-2.1845,-2.1875,-2.1919,-2.1947,-2.2001,-2.2044,-2.2087,-2.2107,-2.2109,-2.2111,-2.212,-2.2117,-2.2109,-2.2114,-2.2025,-2.2109,-2.2108,-2.2108,-2.2107,-2.2107,-2.1661,-2.1691,-2.1727,-2.1768,-2.1795,-2.1826,-2.1857,-2.1879,-2.1916,-2.1962,-2.1971,-2.2018,-2.2052,-2.211,-2.2132,-2.2169,-2.2162,-2.2175,-2.2179,-2.2182,-2.2183,-2.2103,-2.2177,-2.2177,-2.2177,-2.2177,-2.2176,0,-2.1726,-2.1749,-2.1788,-2.1834,-2.1866,-2.1866,-2.1903,-2.193,-2.1972,-2.2004,-2.2039,-2.209,-2.2132,-2.2161,-2.2203,-2.2227,-2.2229,-2.2238,-2.2236,-2.2241,-2.2187,-2.2175,-2.2236,-2.2236,-2.2236,-2.2236,-2.2236,-2.2236,-2.1764,-2.1815,-2.1829,-2.1894,-2.1917,-2.1963,-2.1984,-2.2012,-2.2038,-2.2095,-2.213,-2.2149,-2.218,-2.2225,-2.2263,-2.2271,-2.2286,-2.2295,-2.2302,-2.2251,-2.2245,-2.2239,-2.2227,-2.2298,-2.2298,-2.2353,-2.2353,-2.2354]}]]